This demonstration page uses our WeatherBlox Daily Observations layout. Learn more.

Left ArrowRight Arrow

39.95238, -75.16362

Hourly Observations for February 12, 2017

Temp ( °F °C ) Dew Point ( °F °C ) Humidity (%) Winds ( mph kmh ) Pressure ( in mb ) Visibility ( mi km ) Precip ( " mm )
12:54 am 00:54 Cloudy with Light Rain 44 6.7 31 -0.6 60 60 E 8 13 30.06 1018 10 16 0.00 0.03
1:54 am 01:54 Cloudy 43 6.1 32 0 65 65 ENE 8 13 30.06 1018 10 16 0.00 0.03
2:54 am 02:54 Cloudy 43 6.1 31 -0.6 63 63 E 7 11 30.05 1018 10 16 0.00 0.00
3:54 am 03:54 Cloudy 43 6.1 30 -1.1 60 60 E 9 15 30.06 1018 10 16 0.00 0.00
4:54 am 04:54 Cloudy 42 5.6 31 -0.6 65 65 ENE 10 17 30.04 1017 10 16 0.00 0.00
5:54 am 05:54 Cloudy 41 5 34 1.1 76 76 E 13 20 30.02 1017 10 16 0.00 0.00
6:54 am 06:54 Cloudy 41 5 35 1.7 79 79 E 12 19 30.02 1017 10 16 0.00 0.00
7:41 am 07:41 Cloudy 41 5 35 1.7 79 79 E 13 20 30.00 1016 10 16 0.00 0.00
7:54 am 07:54 Cloudy 42 5.6 35 1.7 76 76 E 12 19 29.97 1015 10 16 0.00 0.00
8:54 am 08:54 Cloudy 42 5.6 35 1.7 76 76 E 17 28 29.96 1015 10 16 0.00 0.00
9:45 am 09:45 Cloudy with Light Rain 41 5 35 1.7 79 79 E 15 24 29.91 1013 7 11 0.00 0.03
9:54 am 09:54 Cloudy with Light Rain 41 5 36 2.2 82 82 E 15 24 29.92 1013 7 11 0.00 0.03
10:12 am 10:12 Cloudy with Light Rain 41 5 36 2.2 82 82 E 14 22 29.91 1013 6 10 0.00 0.03
10:25 am 10:25 Cloudy with Light Rain 41 5 36 2.2 82 82 E 10 17 29.94 1014 5 8 0.00 0.03
10:37 am 10:37 Cloudy with Rain 41 5 36 2.2 82 82 E 13 20 29.91 1013 4 6 0.02 0.51
10:54 am 10:54 Cloudy with Light Rain 40 4.4 37 2.8 89 89 E 12 19 29.91 1013 4 6 0.03 0.76
11:42 am 11:42 Cloudy with Rain 39 4 37 3 93 93 E 12 19 29.85 1011 3 5 0.00 0.00
11:54 am 11:54 Cloudy with Light Rain 40 4.4 38 3.3 93 93 ENE 10 17 29.85 1011 4 6 0.08 2.03
12:36 pm 12:36 Cloudy with Rain 40 4.4 38 3.3 93 93 ENE 13 20 29.80 1009 3 5 0.05 1.27
12:54 pm 12:54 Cloudy with Light Rain 40 4.4 38 3.3 93 93 ENE 9 15 29.78 1009 4 6 0.06 1.52
1:03 pm 13:03 Cloudy with Light Rain 41 5 37 3 87 87 ENE 8 13 29.77 1008 7 11 0.00 0.00
1:54 pm 13:54 Cloudy with Light Rain 41 5 38 3.3 89 89 ENE 8 13 29.74 1007 7 11 0.01 0.25
2:04 pm 14:04 Cloudy with Light Rain 41 5 38 3.3 89 89 ENE 10 17 29.71 1006 6 10 0.00 0.03
2:22 pm 14:22 Cloudy 41 5 37 3 87 87 ENE 7 11 29.71 1006 7 11 0.00 0.00
2:54 pm 14:54 Cloudy 41 5 39 3.9 93 93 ENE 9 15 29.71 1006 7 11 0.00 0.03
2:57 pm 14:57 Cloudy with Drizzle 41 5 39 3.9 93 93 NE 9 15 29.71 1006 5 8 0.00 0.03
3:45 pm 15:45 Cloudy with Drizzle 40 4.4 38 3.3 93 93 NE 12 19 29.71 1006 4 6 0.00 0.03
3:54 pm 15:54 Cloudy with Drizzle 39 3.9 37 2.8 93 93 NE 9 15 29.69 1005 4 6 0.00 0.03
4:54 pm 16:54 Cloudy with Drizzle 38 3.3 36 2.2 93 93 N 9 15 29.71 1006 4 6 0.00 0.03
5:00 pm 17:00 Cloudy with Mist and Fog 38 3.3 36 2.2 93 93 NNW 14 22 29.71 1006 6 10 0.00 0.03
5:54 pm 17:54 Cloudy with Mist and Fog 38 3.3 35 1.7 89 89 NW 13 20 29.74 1007 6 10 0.00 0.03
5:57 pm 17:57 Cloudy 38 3.3 35 1.7 89 89 NW 14 22 29.74 1007 8 13 0.00 0.00
6:54 pm 18:54 Cloudy 37 2.8 34 1.1 89 89 NW 13 20 29.76 1008 8 13 0.00 0.00
7:15 pm 19:15 Cloudy 37 2.8 34 1.1 89 89 NNW 9 15 29.74 1007 10 16 0.00 0.00
7:54 pm 19:54 Cloudy 37 2.8 34 1.1 89 89 NW 7 11 29.75 1008 10 16 0.00 0.00
8:34 pm 20:34 Mostly Cloudy 37 3 34 1 87 87 NW 8 13 29.74 1007 10 16 0.00 0.00
8:54 pm 20:54 Mostly Cloudy 37 2.8 34 1.1 89 89 NW 6 9 29.74 1007 10 16 0.00 0.00
9:54 pm 21:54 Mostly Clear 36 2.2 34 1.1 93 93 WSW 9 15 29.71 1006 10 16 0.00 0.00
10:54 pm 22:54 Mostly Cloudy 37 2.8 34 1.1 89 89 W 9 15 29.70 1006 10 16 0.00 0.00
11:11 pm 23:11 Cloudy with Light Rain 38 3.3 35 1.7 89 89 WNW 9 15 29.68 1005 8 13 0.00 0.03
11:26 pm 23:26 Cloudy with Light Rain 37 3 34 1 87 87 NW 14 22 29.74 1007 6 10 0.00 0.00
11:31 pm 23:31 Cloudy with Heavy Rain 38 3.3 34 1.1 86 86 WNW 21 33 29.74 1007 4 6 0.02 0.51
11:40 pm 23:40 Cloudy with Rain 38 3.3 35 1.7 89 89 WNW 13 20 29.71 1006 5 8 0.03 0.76
11:46 pm 23:46 Cloudy with Light Rain 39 3.9 35 1.7 86 86 WNW 15 24 29.71 1006 9 14 0.03 0.76
11:52 pm 23:52 Cloudy 39 4 34 1 81 81 W 15 24 29.71 1006 10 16 0.03 0.76
11:54 pm 23:54 Cloudy 40 4.4 33 0.6 77 77 W 17 28 29.72 1007 10 16 0.03 0.76

Powered by AerisWeather